DW1437 Weather Reports


time (UTC)temp
C
wind
direction
speed
KPH
gust
KPH
rain 1hr
cm
rain 24hr
cm
rain mn
cm
humidity
%
barometer
mb
20260906194725 21 355 0.0 0.0 0.00 0.05 0.05 63 1014.9
20260906193716 21 0 0.0 0.0 0.00 0.05 0.05 61 1014.9
20260906191529 21 94 0.0 6.4 0.00 0.05 0.05 59 1014.8
20260906190527 22 5 0.0 0.0 0.00 0.05 0.05 58 1014.9
20260906185531 22 121 0.0 6.4 0.00 0.05 0.05 57 1014.8
20260906184517 22 240 0.0 8.0 0.00 0.05 0.05 57 1014.7
20260906182439 22 94 0.0 8.0 0.00 0.05 0.05 53 1014.7
20260906181410 23 317 0.0 1.6 0.00 0.05 0.05 53 1014.9
20260906180402 23 5 0.0 8.0 0.00 0.05 0.05 52 1014.9
20260906175400 23 293 0.0 1.6 0.00 0.05 0.05 52 1015.0
20260906174341 23 123 0.0 0.0 0.00 0.05 0.05 51 1014.9
20260906173358 23 306 1.6 9.7 0.00 0.05 0.05 50 1014.8
20260906172332 24 87 1.6 9.7 0.00 0.05 0.05 49 1014.8
20260906171318 24 227 1.6 11.3 0.00 0.05 0.05 49 1014.8
20260906170259 25 50 3.2 11.3 0.00 0.05 0.05 49 1014.7
20260906165306 25 165 1.6 11.3 0.00 0.05 0.05 48 1014.7
20260906163127 25 273 4.8 12.9 0.00 0.05 0.05 47 1015.1
20260906161029 25 350 0.0 12.9 0.00 0.05 0.05 52 1015.4
20260906160005 25 271 1.6 12.9 0.00 0.05 0.05 51 1015.6
20260906154933 25 113 1.6 9.7 0.00 0.05 0.05 51 1015.6
20260906153934 25 323 1.6 12.9 0.00 0.05 0.05 53 1015.8
20260906152923 25 205 1.6 12.9 0.00 0.05 0.05 51 1016.0
20260906151929 25 135 3.2 11.3 0.00 0.05 0.05 50 1016.1
20260906150910 26 300 0.0 11.3 0.00 0.05 0.05 51 1016.2
20260906145914 25 323 1.6 12.9 0.00 0.05 0.05 54 1016.3
20260906143813 24 210 4.8 12.9 0.00 0.05 0.05 63 1016.8
20260906142827 23 250 1.6 11.3 0.00 0.05 0.05 66 1016.9
20260906141847 23 296 1.6 11.3 0.00 0.05 0.05 66 1017.1
20260906140839 23 302 0.0 14.5 0.00 0.05 0.05 67 1017.3
20260906135822 23 138 1.6 14.5 0.00 0.05 0.05 67 1017.3
20260906133623 22 288 0.0 6.4 0.00 0.05 0.05 70 1017.6
20260906132600 22 336 0.0 6.4 0.00 0.05 0.05 70 1017.7
20260906130428 22 192 0.0 4.8 0.00 0.05 0.05 73 1018.1
20260906124253 20 126 0.0 0.0 0.00 0.05 0.05 76 1018.6
20260906122116 21 103 1.6 6.4 0.00 0.03 0.03 71 1018.8
20260906115950 20 259 0.0 8.0 0.00 0.03 0.03 73 1018.8
20260906114946 20 158 0.0 3.2 0.00 0.03 0.03 74 1018.8
20260906113943 20 16 0.0 1.6 0.00 0.03 0.03 73 1018.9
20260906112910 20 181 0.0 0.0 0.00 0.03 0.03 74 1019.2
20260906111848 19 247 1.6 0.0 0.00 0.03 0.03 73 1019.2
20260906110825 19 217 1.6 14.5 0.00 0.03 0.03 73 1019.4
20260906105806 19 300 3.2 14.5 0.00 0.03 0.03 73 1019.4
20260906104818 18 276 1.6 8.0 0.00 0.03 0.03 75 1019.6
20260906103811 18 298 0.0 16.1 0.00 0.03 0.03 76 1019.7
20260906102757 18 280 0.0 4.8 0.00 0.03 0.03 76 1019.9
20260906101743 18 53 1.6 0.0 0.00 0.03 0.03 77 1019.9
20260906100718 18 76 3.2 11.3 0.00 0.03 0.03 78 1020.0
20260906095736 18 224 1.6 9.7 0.00 0.03 0.03 79 1020.0
20260906094724 17 158 1.6 9.7 0.00 0.03 0.03 80 1020.1
20260906093739 17 232 1.6 11.3 0.00 0.03 0.03 81 1020.3
20260906092716 17 355 1.6 11.3 0.00 0.03 0.03 81 1020.4
20260906091642 17 198 1.6 8.0 0.00 0.03 0.03 83 1020.4
20260906090658 17 211 1.6 8.0 0.00 0.03 0.03 85 1020.4
20260906085710 16 355 0.0 8.0 0.00 0.03 0.03 86 1020.5
20260906084647 16 48 1.6 9.7 0.00 0.03 0.03 86 1020.6
20260906083636 16 229 0.0 12.9 0.00 0.03 0.03 88 1020.6
20260906081542 15 229 1.6 11.3 0.00 0.03 0.03 88 1020.7
20260906075434 15 211 0.0 9.7 0.00 0.03 0.03 90 1020.8
20260906074420 14 48 0.0 3.2 0.00 0.03 0.03 91 1020.8
20260906073400 13 195 0.0 3.2 0.00 0.03 0.03 92 1020.8
20260906072330 13 79 0.0 4.8 0.00 0.03 0.03 93 1020.8
20260906071346 13 71 0.0 4.8 0.00 0.03 0.03 93 1020.9
20260906070328 13 261 0.0 4.8 0.00 0.03 0.03 93 1020.8
20260906065340 13 123 0.0 0.0 0.00 0.03 0.03 93 1020.8
20260906064401 13 123 0.0 0.0 0.00 0.03 0.03 93 1020.8
20260906060017 13 123 0.0 1.6 0.00 0.03 0.03 93 1020.6
20260906055026 13 123 0.0 0.0 0.00 0.03 0.03 92 1020.9
20260906054042 13 123 0.0 0.0 0.00 0.03 0.03 92 1021.0
20260906053017 13 123 0.0 0.0 0.00 0.03 0.03 92 1021.1
20260906052035 13 123 0.0 0.0 0.00 0.03 0.03 91 1021.4
20260906051031 13 123 0.0 0.0 0.00 0.03 0.03 91 1021.3
20260906044857 13 123 0.0 3.2 0.08 0.03 0.03 91 1021.6
20260906042728 13 83 0.0 0.0 0.00 0.00 0.00 90 1021.8
20260906041659 13 112 0.0 0.0 0.00 0.00 0.00 90 1021.9
20260906040630 13 154 0.0 0.0 0.00 0.00 0.00 90 1021.9
20260906035614 13 25 0.0 0.0 0.00 0.00 0.00 90 1022.1
20260906033416 12 234 0.0 0.0 0.00 0.00 0.00 90 1022.3
20260906032431 12 234 0.0 0.0 0.00 0.00 0.00 90 1022.4
20260906031419 12 234 0.0 0.0 0.00 0.00 0.00 90 1022.6
20260906030423 12 234 0.0 0.0 0.00 0.00 0.00 90 1022.7
20260906025411 12 234 0.0 0.0 0.00 0.00 0.00 91 1022.7
20260906024341 12 234 0.0 0.0 0.00 0.00 0.00 90 1022.7
20260906023348 12 239 0.0 0.0 0.00 0.00 0.00 90 1022.8
20260906022325 12 249 0.0 0.0 0.00 0.00 0.00 90 1022.9
20260906020202 12 249 0.0 0.0 0.00 0.00 0.00 90 1023.3
20260906015134 12 249 0.0 0.0 0.00 0.00 0.00 90 1023.4
20260906014122 12 249 0.0 0.0 0.00 0.00 0.00 90 1023.5
20260906013145 12 249 0.0 0.0 0.00 0.00 0.00 90 1023.5
20260906012130 12 249 0.0 0.0 0.00 0.00 0.00 90 1023.7
20260906010023 12 249 0.0 0.0 0.00 0.00 0.00 90 1023.9
20260906005004 12 249 0.0 0.0 0.00 0.00 0.00 89 1024.0
20260906001725 12 249 0.0 0.0 0.00 0.00 0.00 90 1024.2
20260906000739 12 249 0.0 0.0 0.00 0.00 0.00 90 1024.5
20260905234645 12 249 0.0 0.0 0.00 0.00 0.00 89 1024.7
20260905233638 12 249 0.0 0.0 0.00 0.00 0.00 89 1024.7
20260905232643 12 249 0.0 0.0 0.00 0.00 0.00 89 1024.7
20260905231703 12 249 0.0 1.6 0.00 0.00 0.00 90 1024.6
20260905230709 12 241 0.0 0.0 0.00 0.00 0.00 89 1024.5
20260905225714 12 241 0.0 0.0 0.00 0.00 0.00 89 1024.4
20260905224722 12 241 0.0 0.0 0.00 0.00 0.00 88 1024.4
20260905223728 12 241 0.0 0.0 0.00 0.00 0.00 88 1024.3
20260905222737 12 241 0.0 0.0 0.00 0.00 0.00 87 1024.4
20260905220632 12 241 0.0 0.0 0.00 0.00 0.00 87 1024.5
20260905215622 12 241 0.0 0.0 0.00 0.00 0.00 86 1024.6
20260905214626 12 241 0.0 0.0 0.00 0.00 0.00 86 1024.7
20260905213648 13 241 0.0 0.0 0.00 0.00 0.00 85 1024.8
20260905211456 13 241 0.0 0.0 0.00 0.00 0.00 84 1024.8
20260905210426 13 241 0.0 0.0 0.00 0.00 0.00 83 1024.7
20260905205438 13 241 0.0 0.0 0.00 0.00 0.00 83 1024.6
20260905204452 13 241 0.0 0.0 0.00 0.00 0.00 82 1024.5
20260905202332 14 241 0.0 0.0 0.00 0.00 0.00 81 1024.2
20260905201322 14 241 0.0 0.0 0.00 0.00 0.00 79 1024.0
20260905200312 15 241 0.0 0.0 0.00 0.00 0.00 78 1024.1
20260905195332 15 241 0.0 0.0 0.00 0.00 0.00 76 1024.2